GW4843 Weather Reports


Display with metric or nautical units.
time (UTC)temp
F
wind
direction
speed
MPH
gust
MPH
rain 1hr
in
rain 24hr
in
rain mn
in
humidity
%
barometer
mb
20260505152916 42 354 7.0 8.0 0.00 0.00 0.00 55 1021.3
20260505152414 42 335 8.0 9.0 0.00 0.00 0.00 55 1021.4
20260505151913 43 331 9.0 10.0 0.00 0.00 0.00 53 1021.4
20260505151410 44 349 6.0 8.0 0.00 0.00 0.00 55 1021.3
20260505150908 44 352 5.0 8.0 0.00 0.00 0.00 55 1021.4
20260505150405 45 359 6.0 7.0 0.00 0.00 0.00 54 1021.3
20260505140334 40 34 3.0 4.0 0.00 0.00 0.00 61 1021.3
20260505130257 39 333 4.0 4.0 0.00 0.00 0.00 62 1020.5
20260505124748 38 345 3.0 3.0 0.00 0.00 0.00 61 1020.5
20260505124245 38 347 4.0 4.0 0.00 0.00 0.00 61 1020.6
20260505123740 38 338 3.0 4.0 0.00 0.00 0.00 60 1020.6
20260505123237 38 347 4.0 4.0 0.00 0.00 0.00 60 1020.5
20260505122734 38 333 5.0 7.0 0.00 0.00 0.00 60 1020.4
20260505122231 38 324 3.0 3.0 0.00 0.00 0.00 60 1020.4
20260505121727 37 302 4.0 4.0 0.00 0.00 0.00 59 1020.6
20260505121224 37 323 1.0 2.0 0.00 0.00 0.00 59 1020.6
20260505120721 37 319 1.0 2.0 0.00 0.00 0.00 58 1020.5
20260505120217 37 303 2.0 2.0 0.00 0.00 0.00 58 1020.5
20260505115715 37 306 2.0 2.0 0.00 0.00 0.00 57 1020.4
20260505115213 37 311 2.0 2.0 0.00 0.00 0.00 56 1020.4
20260505114710 37 334 3.0 3.0 0.00 0.00 0.00 56 1020.4
20260505114206 37 327 2.0 2.0 0.00 0.00 0.00 56 1020.4
20260505113703 38 324 1.0 2.0 0.00 0.00 0.00 55 1020.2
20260505113200 38 329 2.0 2.0 0.00 0.00 0.00 55 1020.2
20260505112656 38 3 1.0 1.0 0.00 0.00 0.00 55 1020.4
20260505112154 38 338 1.0 1.0 0.00 0.00 0.00 56 1020.4
20260505111653 38 327 1.0 1.0 0.00 0.00 0.00 56 1020.4
20260505111149 38 326 0.0 1.0 0.00 0.00 0.00 56 1020.2
20260505110646 38 300 0.0 0.0 0.00 0.00 0.00 56 1020.2
20260505110143 38 301 1.0 1.0 0.00 0.00 0.00 57 1020.3
20260505102119 37 227 0.0 0.0 0.00 0.00 0.00 57 1020.1
20260505101617 37 221 0.0 0.0 0.00 0.00 0.00 58 1020.0
20260505101113 37 221 0.0 0.0 0.00 0.00 0.00 57 1020.2
20260505100610 38 221 0.0 0.0 0.00 0.00 0.00 57 1020.0
20260505100107 38 221 0.0 0.0 0.00 0.00 0.00 57 1019.9
20260505095603 38 221 0.0 0.0 0.00 0.00 0.00 56 1019.9
20260505095059 38 221 0.0 0.0 0.00 0.00 0.00 55 1020.0
20260505094556 38 221 0.0 0.0 0.00 0.00 0.00 55 1019.7
20260505094052 38 221 0.0 0.0 0.00 0.00 0.00 55 1019.9
20260505093549 38 222 0.0 0.0 0.00 0.00 0.00 56 1020.0
20260505093046 39 223 0.0 0.0 0.00 0.00 0.00 55 1019.9
20260505092543 39 220 0.0 0.0 0.00 0.00 0.00 53 1019.6
20260505092042 39 220 0.0 0.0 0.00 0.00 0.00 53 1019.6
20260505091538 38 229 0.0 1.0 0.00 0.00 0.00 54 1019.7
20260505091037 38 229 0.0 0.0 0.00 0.00 0.00 55 1019.7
20260505090534 38 234 0.0 0.0 0.00 0.00 0.00 55 1019.9
20260505090032 38 240 1.0 1.0 0.00 0.00 0.00 55 1019.7
20260505085530 38 254 2.0 2.0 0.00 0.00 0.00 55 1019.6
20260505085027 38 233 0.0 1.0 0.00 0.00 0.00 55 1019.6
20260505084525 38 247 1.0 1.0 0.00 0.00 0.00 55 1019.5
20260505084023 38 255 1.0 2.0 0.00 0.00 0.00 55 1019.9
20260505083520 38 258 2.0 2.0 0.00 0.00 0.00 55 1019.7
20260505083017 38 249 1.0 1.0 0.00 0.00 0.00 54 1019.6
20260505082512 39 272 2.0 2.0 0.00 0.00 0.00 52 1019.9
20260505082009 39 354 0.0 1.0 0.00 0.00 0.00 52 1019.7
20260505081506 39 354 0.0 0.0 0.00 0.00 0.00 52 1019.7
20260505081003 39 354 0.0 0.0 0.00 0.00 0.00 52 1019.6
20260505080459 39 355 0.0 0.0 0.00 0.00 0.00 52 1019.7
20260505075955 39 354 0.0 0.0 0.00 0.00 0.00 51 1019.5
20260505075452 39 354 0.0 1.0 0.00 0.00 0.00 52 1019.6
20260505074949 39 342 2.0 2.0 0.00 0.00 0.00 52 1019.6
20260505074446 39 309 2.0 2.0 0.00 0.00 0.00 52 1019.7
20260505073943 39 325 1.0 2.0 0.00 0.00 0.00 53 1019.6
20260505073441 39 283 2.0 2.0 0.00 0.00 0.00 52 1019.5
20260505072938 38 269 2.0 2.0 0.00 0.00 0.00 53 1019.5
20260505072434 39 262 2.0 2.0 0.00 0.00 0.00 53 1019.5
20260505071930 39 228 0.0 1.0 0.00 0.00 0.00 52 1019.6
20260505071426 39 229 0.0 0.0 0.00 0.00 0.00 52 1019.5
20260505070925 39 274 2.0 3.0 0.00 0.00 0.00 52 1019.5
20260505070420 40 300 1.0 1.0 0.00 0.00 0.00 51 1019.6
20260505065916 40 349 1.0 1.0 0.00 0.00 0.00 50 1019.5
20260505065413 40 65 1.0 1.0 0.00 0.00 0.00 49 1019.5
20260505064910 40 34 1.0 1.0 0.00 0.00 0.00 49 1019.4
20260505064407 39 28 2.0 2.0 0.00 0.00 0.00 50 1019.3
20260505063906 39 264 2.0 2.0 0.00 0.00 0.00 51 1019.3
20260505063401 39 29 0.0 0.0 0.00 0.00 0.00 50 1019.4
20260505062858 40 32 0.0 0.0 0.00 0.00 0.00 49 1019.4
20260505062355 41 32 0.0 1.0 0.00 0.00 0.00 48 1019.4
20260505061852 41 34 1.0 1.0 0.00 0.00 0.00 48 1019.2
20260505061351 41 45 2.0 2.0 0.00 0.00 0.00 48 1019.2
20260505060848 41 63 1.0 1.0 0.00 0.00 0.00 48 1019.4
20260505060344 41 25 3.0 3.0 0.00 0.00 0.00 48 1019.2
20260505055840 41 22 3.0 3.0 0.00 0.00 0.00 48 1019.2
20260505055336 41 25 4.0 4.0 0.00 0.00 0.00 47 1019.1
20260505054834 41 45 2.0 2.0 0.00 0.00 0.00 47 1019.2
20260505054331 41 36 3.0 4.0 0.00 0.00 0.00 47 1019.2
20260505053829 41 51 4.0 4.0 0.00 0.00 0.00 47 1019.0
20260505053325 41 49 2.0 2.0 0.00 0.00 0.00 48 1019.0
20260505052822 40 54 1.0 2.0 0.00 0.00 0.00 48 1018.8
20260505052319 40 61 2.0 2.0 0.00 0.00 0.00 48 1018.9
20260505051816 40 74 1.0 1.0 0.00 0.00 0.00 48 1019.0
20260505051314 40 57 2.0 2.0 0.00 0.00 0.00 48 1019.0
20260505050812 40 42 1.0 1.0 0.00 0.00 0.00 48 1019.0
20260505050310 41 43 1.0 1.0 0.00 0.00 0.00 47 1019.0
20260505041740 42 29 2.0 3.0 0.00 0.00 0.00 46 1019.0
20260505041237 42 76 2.0 2.0 0.00 0.00 0.00 45 1018.8
20260505040734 42 27 4.0 6.0 0.00 0.00 0.00 45 1018.8
20260505040232 42 44 2.0 3.0 0.00 0.00 0.00 45 1018.7
20260505035729 42 69 2.0 2.0 0.00 0.00 0.00 44 1018.7
20260505035224 43 89 1.0 1.0 0.00 0.00 0.00 43 1018.4
20260505034721 44 31 4.0 4.0 0.00 0.00 0.00 43 1018.4
20260505034218 44 16 4.0 6.0 0.00 0.00 0.00 42 1018.5
20260505033714 44 44 7.0 8.0 0.00 0.00 0.00 42 1018.3
20260505033213 45 34 6.0 7.0 0.00 0.00 0.00 41 1018.3
20260505032710 45 27 4.0 6.0 0.00 0.00 0.00 41 1018.2
20260505032206 45 20 5.0 6.0 0.00 0.00 0.00 41 1018.1
20260505031704 45 22 5.0 7.0 0.00 0.00 0.00 40 1018.1
20260505031200 46 18 6.0 8.0 0.00 0.00 0.00 40 1018.0
20260505030657 46 14 11.0 11.0 0.00 0.00 0.00 39 1018.1
20260505030153 46 28 8.0 10.0 0.00 0.00 0.00 39 1017.7
20260505025649 46 17 7.0 9.0 0.00 0.00 0.00 38 1017.4
20260505025147 47 23 6.0 9.0 0.00 0.00 0.00 37 1017.7
20260505024644 47 3 9.0 10.0 0.00 0.00 0.00 37 1017.3
20260505024142 48 16 8.0 9.0 0.00 0.00 0.00 35 1017.3
20260505023639 48 14 9.0 11.0 0.00 0.00 0.00 35 1017.4
20260505023136 48 18 10.0 13.0 0.00 0.00 0.00 34 1017.3
20260505022634 49 15 10.0 11.0 0.00 0.00 0.00 33 1017.1
20260505022131 50 12 7.0 8.0 0.00 0.00 0.00 32 1017.0
20260505021627 50 43 6.0 7.0 0.00 0.00 0.00 29 1016.9
20260505021124 51 13 7.0 8.0 0.00 0.00 0.00 28 1016.9
20260505020620 51 11 7.0 9.0 0.00 0.00 0.00 28 1016.8
20260505020116 52 5 6.0 8.0 0.00 0.00 0.00 27 1016.8
20260505015613 52 18 6.0 9.0 0.00 0.00 0.00 26 1016.6
20260505015110 53 16 10.0 15.0 0.00 0.00 0.00 25 1016.7
20260505014607 53 23 7.0 8.0 0.00 0.00 0.00 24 1016.7
20260505014104 53 12 8.0 10.0 0.00 0.00 0.00 23 1016.6
20260505013601 54 10 9.0 10.0 0.00 0.00 0.00 23 1016.5
20260505013058 54 356 9.0 10.0 0.00 0.00 0.00 23 1016.5
20260505012556 54 22 7.0 9.0 0.00 0.00 0.00 23 1016.5
20260505012053 55 9 12.0 15.0 0.00 0.00 0.00 21 1016.4
20260505011548 55 340 10.0 13.0 0.00 0.00 0.00 21 1016.5
20260505011046 55 4 11.0 13.0 0.00 0.00 0.00 21 1016.5
20260505010541 55 336 10.0 13.0 0.00 0.00 0.00 21 1016.2
20260505010038 55 4 10.0 11.0 0.00 0.00 0.00 20 1016.2
20260505005534 55 7 6.0 8.0 0.00 0.00 0.00 22 1016.4
20260505005032 56 344 11.0 14.0 0.00 0.00 0.00 21 1016.4
20260505004529 55 343 8.0 10.0 0.00 0.00 0.00 22 1016.4
20260505004025 55 4 13.0 16.0 0.00 0.00 0.00 21 1016.4
20260505003523 55 348 9.0 13.0 0.00 0.00 0.00 22 1016.2
20260505003020 56 3 8.0 9.0 0.00 0.00 0.00 21 1016.5
20260505002515 56 4 10.0 11.0 0.00 0.00 0.00 22 1016.2
20260505002014 56 350 11.0 15.0 0.00 0.00 0.00 21 1016.5
20260505001511 56 358 14.0 18.0 0.00 0.00 0.00 22 1016.4
20260505001008 56 345 14.0 18.0 0.00 0.00 0.00 22 1016.4
20260505000505 56 341 9.0 10.0 0.00 0.00 0.00 23 1016.5
20260505000003 56 335 12.0 14.0 0.00 0.00 0.00 23 1016.6
20260504235459 57 343 13.0 17.0 0.00 0.00 0.00 23 1016.6
20260504234956 56 325 16.0 19.0 0.00 0.00 0.00 23 1016.6
20260504234453 56 345 12.0 14.0 0.00 0.00 0.00 23 1016.4
20260504233949 56 347 7.0 8.0 0.00 0.00 0.00 24 1016.6
20260504233445 55 348 11.0 14.0 0.00 0.00 0.00 24 1016.5
20260504232942 56 349 7.0 8.0 0.00 0.00 0.00 23 1016.5
20260504232439 57 2 12.0 14.0 0.00 0.00 0.00 23 1016.6
20260504231937 57 328 8.0 10.0 0.00 0.00 0.00 24 1016.6
20260504231432 57 337 8.0 10.0 0.00 0.00 0.00 25 1016.6
20260504230929 56 342 19.0 19.0 0.00 0.00 0.00 24 1016.7
20260504230426 56 345 14.0 17.0 0.00 0.00 0.00 26 1016.4
20260504225925 57 359 11.0 13.0 0.00 0.00 0.00 24 1016.5
20260504225421 57 6 10.0 11.0 0.00 0.00 0.00 25 1016.4
20260504224919 58 353 11.0 11.0 0.00 0.00 0.00 25 1016.4
20260504224415 56 327 13.0 15.0 0.00 0.00 0.00 27 1016.4
20260504223913 56 309 10.0 13.0 0.00 0.00 0.00 28 1016.5
20260504223408 55 0 10.0 11.0 0.00 0.00 0.00 28 1016.4
20260504222904 54 313 18.0 19.0 0.00 0.00 0.00 29 1016.6
20260504222401 54 344 15.0 18.0 0.00 0.00 0.00 29 1016.6
20260504221900 54 313 13.0 15.0 0.00 0.00 0.00 29 1016.6
20260504221356 54 342 15.0 18.0 0.00 0.00 0.00 30 1016.6
20260504220854 54 335 12.0 13.0 0.00 0.00 0.00 30 1016.6
20260504220350 55 332 10.0 10.0 0.00 0.00 0.00 29 1016.7
20260504215847 55 349 11.0 16.0 0.00 0.00 0.00 28 1016.5
20260504215343 54 351 15.0 17.0 0.00 0.00 0.00 28 1016.8
20260504214840 55 343 11.0 13.0 0.00 0.00 0.00 28 1016.7
20260504214337 56 3 13.0 16.0 0.00 0.00 0.00 27 1016.6
20260504213833 56 11 14.0 15.0 0.00 0.00 0.00 27 1016.7
20260504213329 55 1 11.0 13.0 0.00 0.00 0.00 29 1016.7
20260504212827 55 0 16.0 19.0 0.00 0.00 0.00 28 1016.7
20260504212323 56 333 13.0 15.0 0.00 0.00 0.00 29 1016.9
20260504211821 56 8 12.0 14.0 0.00 0.00 0.00 29 1017.0
20260504211316 56 351 12.0 15.0 0.00 0.00 0.00 29 1016.8
20260504210814 56 355 13.0 16.0 0.00 0.00 0.00 31 1016.8
20260504210311 56 8 11.0 13.0 0.00 0.00 0.00 31 1016.6
20260504205808 56 330 12.0 17.0 0.00 0.00 0.00 31 1016.8
20260504205306 57 349 14.0 16.0 0.00 0.00 0.00 30 1016.7
20260504204804 57 346 13.0 16.0 0.00 0.00 0.00 31 1016.7
20260504204302 56 3 10.0 13.0 0.00 0.00 0.00 32 1016.6
20260504203801 57 336 15.0 17.0 0.00 0.00 0.00 30 1016.6
20260504203258 57 359 13.0 15.0 0.00 0.00 0.00 31 1016.7
20260504202758 58 336 12.0 14.0 0.00 0.00 0.00 31 1016.6
20260504202256 56 318 11.0 11.0 0.00 0.00 0.00 31 1016.5
20260504201752 56 355 7.0 9.0 0.00 0.00 0.00 32 1016.4
20260504201249 56 338 11.0 11.0 0.00 0.00 0.00 32 1016.6
20260504200748 56 328 14.0 18.0 0.00 0.00 0.00 31 1016.5
20260504200243 55 332 13.0 15.0 0.00 0.00 0.00 31 1016.6
20260504195740 55 339 15.0 19.0 0.00 0.00 0.00 32 1016.6
20260504195236 55 345 11.0 13.0 0.00 0.00 0.00 32 1016.6
20260504194733 55 346 17.0 21.0 0.00 0.00 0.00 31 1016.4
20260504194229 56 337 9.0 10.0 0.00 0.00 0.00 32 1016.6
20260504193725 55 350 10.0 11.0 0.00 0.00 0.00 32 1016.6
20260504193223 55 359 9.0 10.0 0.00 0.00 0.00 31 1016.4
20260504192721 56 1 11.0 16.0 0.00 0.00 0.00 32 1016.6
20260504192219 56 350 11.0 13.0 0.00 0.00 0.00 31 1016.6
20260504191718 57 342 11.0 15.0 0.00 0.00 0.00 31 1016.6
20260504191214 56 350 10.0 14.0 0.00 0.00 0.00 32 1016.7
20260504190709 56 334 11.0 14.0 0.00 0.00 0.00 31 1016.8
20260504190206 58 339 12.0 15.0 0.00 0.00 0.00 30 1016.5
20260504185702 56 316 8.0 9.0 0.00 0.00 0.00 32 1016.8
20260504185159 58 2 14.0 19.0 0.00 0.00 0.00 31 1016.8
20260504184655 58 340 12.0 16.0 0.00 0.00 0.00 32 1016.7
20260504184150 57 329 11.0 14.0 0.00 0.00 0.00 31 1016.8
20260504183647 59 345 17.0 19.0 0.00 0.00 0.00 31 1016.5
20260504183145 58 344 14.0 16.0 0.00 0.00 0.00 31 1016.4
20260504182642 58 308 13.0 15.0 0.00 0.00 0.00 31 1016.8
20260504182140 58 3 13.0 19.0 0.00 0.00 0.00 30 1016.8
20260504181637 57 350 12.0 13.0 0.00 0.00 0.00 32 1016.6
20260504181135 56 330 17.0 25.0 0.00 0.00 0.00 31 1016.8
20260504180634 57 342 13.0 17.0 0.00 0.00 0.00 32 1016.7
20260504180132 57 343 14.0 17.0 0.00 0.00 0.00 33 1016.8
20260504175629 57 359 10.0 13.0 0.00 0.00 0.00 33 1016.9
20260504175125 57 6 11.0 13.0 0.00 0.00 0.00 35 1016.8
20260504174624 56 359 13.0 17.0 0.00 0.00 0.00 35 1016.9
20260504174119 57 357 16.0 21.0 0.00 0.00 0.00 34 1017.0
20260504173617 57 340 14.0 17.0 0.00 0.00 0.00 35 1016.8
20260504173114 56 350 12.0 14.0 0.00 0.00 0.00 35 1016.8
20260504172611 56 354 14.0 18.0 0.00 0.00 0.00 35 1016.9
20260504172107 56 337 13.0 16.0 0.00 0.00 0.00 36 1016.7
20260504171604 55 340 11.0 13.0 0.00 0.00 0.00 36 1016.8
20260504171101 55 328 10.0 11.0 0.00 0.00 0.00 38 1016.8
20260504170556 55 321 10.0 11.0 0.00 0.00 0.00 39 1016.9